GW4541 Weather Reports


time (UTC)temp
C
wind
direction
speed
KPH
gust
KPH
rain 1hr
cm
rain 24hr
cm
rain mn
cm
humidity
%
barometer
mb
20260507073143 7 31 1.6 9.7 0.00 0.89 0.03 99 1013.0
20260507071142 7 314 0.0 9.7 0.00 0.91 0.03 99 1012.8
20260507070143 7 335 0.0 12.9 0.00 0.94 0.03 99 1012.6
20260507065143 7 325 1.6 11.3 0.00 0.97 0.03 99 1012.6
20260507064144 7 54 3.2 4.8 0.00 0.99 0.03 99 1012.5
20260507063143 7 36 1.6 9.7 0.00 1.02 0.03 99 1012.5
20260507061143 7 330 3.2 6.4 0.00 1.07 0.03 99 1012.3
20260507060144 7 311 3.2 6.4 0.00 1.12 0.03 99 1012.1
20260507055143 7 38 1.6 6.4 0.00 1.17 0.03 99 1012.0
20260507054144 7 345 1.6 6.4 0.00 1.24 0.03 99 1011.9
20260507053143 7 21 0.0 4.8 0.00 1.27 0.03 99 1012.0
20260507051143 7 45 1.6 6.4 0.00 1.35 0.03 99 1011.7
20260507050142 7 24 3.2 4.8 0.00 1.37 0.03 99 1011.4
20260507045143 7 310 0.0 3.2 0.00 1.40 0.03 99 1011.3
20260507044143 7 40 0.0 4.8 0.00 1.42 0.03 99 1011.4
20260507043143 7 17 0.0 3.2 0.00 1.47 0.03 99 1011.4
20260507041143 7 57 0.0 6.4 0.00 1.52 0.03 99 1011.1
20260507040143 7 331 0.0 4.8 0.00 1.55 0.03 99 1011.1
20260507035142 7 309 3.2 6.4 0.00 1.60 0.03 99 1011.1
20260507034142 7 330 0.0 4.8 0.00 1.65 0.03 99 1010.9
20260507033143 7 298 0.0 3.2 0.00 1.73 0.03 99 1011.0
20260507032143 7 23 0.0 4.8 0.00 1.78 0.03 99 1010.9
20260507030143 7 334 0.0 3.2 0.00 1.93 0.03 99 1010.6
20260507025143 7 352 1.6 9.7 0.00 1.98 0.03 99 1010.7
20260507024131 7 24 1.6 3.2 0.00 2.08 0.03 99 1010.6
20260507022131 7 318 1.6 4.8 0.00 2.18 0.03 99 1010.6
20260507020130 7 303 0.0 4.8 0.00 2.29 0.03 99 1010.3
20260507015132 7 29 3.2 4.8 0.00 2.34 0.03 99 1010.4
20260507014131 7 36 3.2 4.8 0.00 2.36 0.03 99 1010.3
20260507013131 7 332 0.0 3.2 0.00 2.41 0.03 99 1010.3
20260507012131 7 17 0.0 3.2 0.00 2.44 0.03 99 1010.2
20260507011131 7 27 0.0 4.8 0.00 2.49 0.03 99 1010.1
20260507010131 7 30 0.0 3.2 0.00 2.51 0.03 99 1010.1
20260507005131 7 16 0.0 1.6 0.00 2.57 0.03 99 1009.9
20260507003131 7 279 0.0 3.2 0.00 2.69 0.03 99 1010.0
20260507002131 7 338 0.0 3.2 0.00 2.74 0.03 99 1010.0
20260507001106 7 27 1.6 4.8 0.00 2.79 0.03 99 1010.0
20260507000107 7 17 0.0 6.4 0.03 2.82 0.03 99 1009.9
20260506235107 7 305 0.0 3.2 0.03 2.84 0.03 99 1009.8
20260506234055 7 31 1.6 4.8 0.03 2.90 0.03 99 1009.9
20260506233055 7 353 3.2 9.7 0.03 2.92 0.03 99 1009.9
20260506231055 7 67 3.2 6.4 0.03 2.97 0.03 99 1009.8
20260506230055 7 50 1.6 9.7 0.00 3.00 0.00 99 1009.8
20260506225055 7 37 3.2 9.7 0.00 3.02 0.00 99 1009.9
20260506224055 7 19 3.2 6.4 0.00 3.07 0.00 99 1009.7
20260506223057 7 28 4.8 9.7 0.03 3.10 0.00 99 1009.8
20260506221055 7 5 0.0 4.8 0.03 3.15 0.00 99 1009.4
20260506220055 7 338 0.0 6.4 0.03 3.15 0.00 99 1009.4
20260506215055 7 339 1.6 6.4 0.03 3.15 3.15 99 1009.4
20260506213055 7 339 0.0 4.8 0.00 3.12 3.12 99 1009.4
20260506212055 7 40 0.0 4.8 0.00 3.12 3.12 99 1009.4
20260506211056 7 44 0.0 3.2 0.00 3.15 3.12 99 1009.2
20260506210055 7 351 0.0 3.2 0.00 3.15 3.12 99 1009.2
20260506205055 7 332 1.6 3.2 0.00 3.15 3.12 99 1009.1
20260506203055 7 28 0.0 9.7 0.00 3.15 3.12 99 1009.1
20260506202054 7 66 3.2 4.8 0.00 3.15 3.12 99 1009.1
20260506201055 7 354 1.6 4.8 0.00 3.15 3.12 99 1008.8
20260506200055 7 39 0.0 4.8 0.00 3.15 3.12 99 1008.8
20260506195055 7 349 0.0 9.7 0.00 3.15 3.12 99 1009.0
20260506193055 7 312 3.2 11.3 0.00 3.15 3.12 99 1008.6
20260506191055 7 9 3.2 4.8 0.00 3.15 3.12 99 1008.4
20260506190055 7 60 1.6 9.7 0.00 3.15 3.12 99 1008.3
20260506185055 7 356 1.6 11.3 0.00 3.15 3.12 99 1008.3
20260506184055 7 35 1.6 4.8 0.00 3.15 3.12 99 1008.0
20260506183055 7 56 3.2 11.3 0.00 3.15 3.12 99 1008.1
20260506181055 7 344 0.0 9.7 0.00 3.15 3.12 99 1008.1
20260506180055 7 75 1.6 9.7 0.00 3.15 3.12 99 1007.7
20260506175055 7 7 0.0 6.4 0.00 3.15 3.12 99 1007.6
20260506174055 7 7 1.6 9.7 0.00 3.15 3.12 99 1007.6
20260506173055 7 24 3.2 12.9 0.03 3.15 3.12 99 1007.6
20260506172055 7 38 1.6 6.4 0.03 3.15 3.12 99 1007.3
20260506171055 7 75 1.6 4.8 0.03 3.15 3.12 99 1007.4
20260506170055 7 31 3.2 9.7 0.05 3.15 3.12 99 1007.4
20260506164055 7 8 1.6 11.3 0.08 3.15 3.12 99 1007.4
20260506163055 8 320 4.8 12.9 0.08 3.12 3.10 99 1007.3
20260506162055 8 7 3.2 6.4 0.10 3.12 3.10 99 1007.1
20260506161055 8 28 1.6 12.9 0.13 3.12 3.10 99 1007.1
20260506155055 8 17 0.0 11.3 0.15 3.10 3.07 99 1007.3
20260506154055 8 37 4.8 12.9 0.18 3.07 3.05 99 1007.1
20260506153055 8 26 0.0 11.3 0.18 3.05 3.02 99 1007.0
20260506152055 8 59 1.6 16.1 0.18 3.02 3.00 99 1007.0
20260506151055 8 36 6.4 6.4 0.18 3.00 2.97 99 1007.2
20260506150055 8 29 1.6 12.9 0.15 2.95 2.92 99 1007.1
20260506145054 8 77 0.0 14.5 0.15 2.92 2.92 99 1007.0
20260506143055 8 156 0.0 12.9 0.15 2.87 2.84 99 1007.1
20260506142055 8 296 3.2 11.3 0.13 2.84 2.82 99 1006.8
20260506141055 8 19 1.6 6.4 0.13 2.82 2.79 99 1006.9
20260506140055 8 22 6.4 6.4 0.10 2.79 2.77 99 1006.9
20260506135055 8 31 1.6 9.7 0.10 2.77 2.74 99 1006.8
20260506134055 8 72 0.0 6.4 0.08 2.74 2.72 99 1007.0
20260506132056 8 117 1.6 11.3 0.08 2.72 2.69 99 1006.8
20260506131054 8 344 3.2 6.4 0.05 2.69 2.67 99 1006.8
20260506130055 8 38 0.0 4.8 0.08 2.69 2.67 99 1006.7
20260506125055 8 44 0.0 6.4 0.05 2.67 2.64 99 1006.8
20260506123054 8 2 3.2 9.7 0.08 2.67 2.64 99 1006.7
20260506122055 7 87 0.0 11.3 0.05 2.64 2.62 99 1006.5
20260506121055 7 53 0.0 6.4 0.08 2.64 2.62 99 1006.5
20260506120055 7 46 0.0 6.4 0.05 2.62 2.59 99 1006.3
20260506115054 7 94 0.0 3.2 0.08 2.62 2.59 99 1006.2
20260506113055 7 139 1.6 11.3 0.08 2.59 2.57 99 1006.4
20260506112055 7 31 0.0 11.3 0.10 2.59 2.57 99 1006.2
20260506110055 7 176 0.0 9.7 0.10 2.57 2.54 99 1006.4
20260506105054 7 53 1.6 11.3 0.10 2.54 2.54 99 1006.4
20260506104055 7 346 1.6 6.4 0.13 2.54 2.51 99 1006.2
20260506103055 7 330 3.2 6.4 0.13 2.51 2.49 99 1006.1
20260506102054 7 103 3.2 9.7 0.13 2.49 2.49 99 1006.1
20260506101055 7 335 6.4 6.4 0.13 2.49 2.46 99 1006.0
20260506100054 7 27 3.2 11.3 0.10 2.46 2.44 99 1006.2
20260506095055 7 27 1.6 9.7 0.08 2.44 2.41 99 1006.1
20260506093055 6 58 0.0 6.4 0.03 2.39 2.36 99 1005.7
20260506092054 7 48 1.6 6.4 0.00 2.36 2.34 99 1005.7
20260506091055 6 91 0.0 6.4 0.03 2.36 2.34 99 1005.7
20260506085055 6 78 0.0 9.7 0.03 2.36 2.34 99 1005.5
20260506084054 6 56 3.2 9.7 0.03 2.36 2.34 99 1005.6
20260506083055 6 131 4.8 6.4 0.05 2.36 2.34 99 1005.6
20260506082055 6 11 3.2 14.5 0.08 2.36 2.34 99 1005.4
20260506081055 6 16 3.2 11.3 0.05 2.34 2.31 99 1005.3